Year,Month,Day,Hour,Minute,Value (Times are PST for insolation in W/m^2)
2013,04,29,00,00,0.00
2013,04,29,00,01,0.00
2013,04,29,00,02,0.00
2013,04,29,00,03,0.00
2013,04,29,00,04,0.00
2013,04,29,00,05,0.00
2013,04,29,00,06,0.00
2013,04,29,00,07,0.00
2013,04,29,00,08,0.00
2013,04,29,00,09,0.00
2013,04,29,00,10,0.00
2013,04,29,00,11,0.00
2013,04,29,00,12,0.00
2013,04,29,00,13,0.00
2013,04,29,00,14,0.00
2013,04,29,00,15,0.00
2013,04,29,00,16,0.00
2013,04,29,00,17,0.00
2013,04,29,00,18,0.00
2013,04,29,00,19,0.00
2013,04,29,00,20,0.00
2013,04,29,00,21,0.00
2013,04,29,00,22,0.00
2013,04,29,00,23,0.00
2013,04,29,00,24,0.00
2013,04,29,00,25,0.00
2013,04,29,00,26,0.00
2013,04,29,00,27,0.00
2013,04,29,00,28,0.00
2013,04,29,00,29,0.00
2013,04,29,00,30,0.00
2013,04,29,00,31,0.00
2013,04,29,00,32,0.00
2013,04,29,00,33,0.00
2013,04,29,00,34,0.00
2013,04,29,00,35,0.00
2013,04,29,00,36,0.00
2013,04,29,00,37,0.00
2013,04,29,00,38,0.00
2013,04,29,00,39,0.00
2013,04,29,00,40,0.00
2013,04,29,00,41,0.00
2013,04,29,00,42,0.00
2013,04,29,00,43,0.00
2013,04,29,00,44,0.00
2013,04,29,00,45,0.00
2013,04,29,00,46,0.00
2013,04,29,00,47,0.00
2013,04,29,00,48,0.00
2013,04,29,00,49,0.00
2013,04,29,00,50,0.00
2013,04,29,00,51,0.00
2013,04,29,00,52,0.00
2013,04,29,00,53,0.00
2013,04,29,00,54,0.00
2013,04,29,00,55,0.00
2013,04,29,00,56,0.00
2013,04,29,00,57,0.00
2013,04,29,00,58,0.00
2013,04,29,00,59,0.00
2013,04,29,01,00,0.00
2013,04,29,01,01,0.00
2013,04,29,01,02,0.00
2013,04,29,01,03,0.00
2013,04,29,01,04,0.00
2013,04,29,01,05,0.00
2013,04,29,01,06,0.00
2013,04,29,01,07,0.00
2013,04,29,01,08,0.00
2013,04,29,01,09,0.00
2013,04,29,01,10,0.00
2013,04,29,01,11,0.00
2013,04,29,01,12,0.00
2013,04,29,01,13,0.00
2013,04,29,01,14,0.00
2013,04,29,01,15,0.00
2013,04,29,01,16,0.00
2013,04,29,01,17,0.00
2013,04,29,01,18,0.00
2013,04,29,01,19,0.00
2013,04,29,01,20,0.00
2013,04,29,01,21,0.00
2013,04,29,01,22,0.00
2013,04,29,01,23,0.00
2013,04,29,01,24,0.00
2013,04,29,01,25,0.00
2013,04,29,01,26,0.00
2013,04,29,01,27,0.00
2013,04,29,01,28,0.00
2013,04,29,01,29,0.00
2013,04,29,01,30,0.00
2013,04,29,01,31,0.00
2013,04,29,01,32,0.00
2013,04,29,01,33,0.00
2013,04,29,01,34,0.00
2013,04,29,01,35,0.00
2013,04,29,01,36,0.00
2013,04,29,01,37,0.00
2013,04,29,01,38,0.00
2013,04,29,01,39,0.00
2013,04,29,01,40,0.00
2013,04,29,01,41,0.00
2013,04,29,01,42,0.00
2013,04,29,01,43,0.00
2013,04,29,01,44,0.00
2013,04,29,01,45,0.00
2013,04,29,01,46,0.00
2013,04,29,01,47,0.00
2013,04,29,01,48,0.00
2013,04,29,01,49,0.00
2013,04,29,01,50,0.00
2013,04,29,01,51,0.00
2013,04,29,01,52,0.00
2013,04,29,01,53,0.00
2013,04,29,01,54,0.00
2013,04,29,01,55,0.00
2013,04,29,01,56,0.00
2013,04,29,01,57,0.00
2013,04,29,01,58,0.00
2013,04,29,01,59,0.00
2013,04,29,02,00,0.00
2013,04,29,02,01,0.00
2013,04,29,02,02,0.00
2013,04,29,02,03,0.00
2013,04,29,02,04,0.00
2013,04,29,02,05,0.00
2013,04,29,02,06,0.00
2013,04,29,02,07,0.00
2013,04,29,02,08,0.00
2013,04,29,02,09,0.00
2013,04,29,02,10,0.00
2013,04,29,02,11,0.00
2013,04,29,02,12,0.00
2013,04,29,02,13,0.00
2013,04,29,02,14,0.00
2013,04,29,02,15,0.00
2013,04,29,02,16,0.00
2013,04,29,02,17,0.00
2013,04,29,02,18,0.00
2013,04,29,02,19,0.00
2013,04,29,02,20,0.00
2013,04,29,02,21,0.00
2013,04,29,02,22,0.00
2013,04,29,02,23,0.00
2013,04,29,02,24,0.00
2013,04,29,02,25,0.00
2013,04,29,02,26,0.00
2013,04,29,02,27,0.00
2013,04,29,02,28,0.00
2013,04,29,02,29,0.00
2013,04,29,02,30,0.00
2013,04,29,02,31,0.00
2013,04,29,02,32,0.00
2013,04,29,02,33,0.00
2013,04,29,02,34,0.00
2013,04,29,02,35,0.00
2013,04,29,02,36,0.00
2013,04,29,02,37,0.00
2013,04,29,02,38,0.00
2013,04,29,02,39,0.00
2013,04,29,02,40,0.00
2013,04,29,02,41,0.00
2013,04,29,02,42,0.00
2013,04,29,02,43,0.00
2013,04,29,02,44,0.00
2013,04,29,02,45,0.00
2013,04,29,02,46,0.00
2013,04,29,02,47,0.00
2013,04,29,02,48,0.00
2013,04,29,02,49,0.00
2013,04,29,02,50,0.00
2013,04,29,02,51,0.00
2013,04,29,02,52,0.00
2013,04,29,02,53,0.00
2013,04,29,02,54,0.00
2013,04,29,02,55,0.00
2013,04,29,02,56,0.00
2013,04,29,02,57,0.00
2013,04,29,02,58,0.00
2013,04,29,02,59,0.00
2013,04,29,03,00,0.00
2013,04,29,03,01,0.00
2013,04,29,03,02,0.00
2013,04,29,03,03,0.00
2013,04,29,03,04,0.00
2013,04,29,03,05,0.00
2013,04,29,03,06,0.00
2013,04,29,03,07,0.00
2013,04,29,03,08,0.00
2013,04,29,03,09,0.00
2013,04,29,03,10,0.00
2013,04,29,03,11,0.00
2013,04,29,03,12,0.00
2013,04,29,03,13,0.00
2013,04,29,03,14,0.00
2013,04,29,03,15,0.00
2013,04,29,03,16,0.00
2013,04,29,03,17,0.00
2013,04,29,03,18,0.00
2013,04,29,03,19,0.00
2013,04,29,03,20,0.00
2013,04,29,03,21,0.00
2013,04,29,03,22,0.00
2013,04,29,03,23,0.00
2013,04,29,03,24,0.00
2013,04,29,03,25,0.00
2013,04,29,03,26,0.00
2013,04,29,03,27,0.00
2013,04,29,03,28,0.00
2013,04,29,03,29,0.00
2013,04,29,03,30,0.00
2013,04,29,03,31,0.00
2013,04,29,03,32,0.00
2013,04,29,03,33,0.00
2013,04,29,03,34,0.00
2013,04,29,03,35,0.00
2013,04,29,03,36,0.00
2013,04,29,03,37,0.00
2013,04,29,03,38,0.00
2013,04,29,03,39,0.00
2013,04,29,03,40,0.00
2013,04,29,03,41,0.00
2013,04,29,03,42,0.00
2013,04,29,03,43,0.00
2013,04,29,03,44,0.00
2013,04,29,03,45,0.00
2013,04,29,03,46,0.00
2013,04,29,03,47,0.00
2013,04,29,03,48,0.00
2013,04,29,03,49,0.00
2013,04,29,03,50,0.00
2013,04,29,03,51,0.00
2013,04,29,03,52,0.00
2013,04,29,03,53,0.00
2013,04,29,03,54,0.00
2013,04,29,03,55,0.00
2013,04,29,03,56,0.00
2013,04,29,03,57,0.00
2013,04,29,03,58,0.00
2013,04,29,03,59,0.00
2013,04,29,04,00,0.00
2013,04,29,04,01,0.00
2013,04,29,04,02,0.00
2013,04,29,04,03,0.00
2013,04,29,04,04,0.00
2013,04,29,04,05,0.00
2013,04,29,04,06,0.00
2013,04,29,04,07,0.00
2013,04,29,04,08,0.00
2013,04,29,04,09,0.00
2013,04,29,04,10,0.00
2013,04,29,04,11,0.00
2013,04,29,04,12,0.00
2013,04,29,04,13,0.00
2013,04,29,04,14,0.00
2013,04,29,04,15,0.00
2013,04,29,04,16,0.00
2013,04,29,04,17,0.00
2013,04,29,04,18,0.00
2013,04,29,04,19,0.00
2013,04,29,04,20,0.00
2013,04,29,04,21,0.00
2013,04,29,04,22,0.00
2013,04,29,04,23,0.00
2013,04,29,04,24,0.00
2013,04,29,04,25,0.00
2013,04,29,04,26,0.00
2013,04,29,04,27,0.00
2013,04,29,04,28,0.00
2013,04,29,04,29,0.00
2013,04,29,04,30,0.00
2013,04,29,04,31,0.00
2013,04,29,04,32,0.00
2013,04,29,04,33,0.00
2013,04,29,04,34,0.00
2013,04,29,04,35,0.00
2013,04,29,04,36,0.00
2013,04,29,04,37,0.00
2013,04,29,04,38,0.00
2013,04,29,04,39,0.00
2013,04,29,04,40,0.00
2013,04,29,04,41,0.00
2013,04,29,04,42,0.00
2013,04,29,04,43,0.00
2013,04,29,04,44,0.00
2013,04,29,04,45,0.00
2013,04,29,04,46,0.00
2013,04,29,04,47,0.00
2013,04,29,04,48,0.00
2013,04,29,04,49,0.00
2013,04,29,04,50,0.00
2013,04,29,04,51,0.00
2013,04,29,04,52,0.00
2013,04,29,04,53,0.00
2013,04,29,04,54,0.00
2013,04,29,04,55,0.00
2013,04,29,04,56,0.00
2013,04,29,04,57,0.00
2013,04,29,04,58,0.00
2013,04,29,04,59,0.00
2013,04,29,05,00,0.00
2013,04,29,05,01,0.00
2013,04,29,05,02,0.00
2013,04,29,05,03,0.00
2013,04,29,05,04,0.00
2013,04,29,05,05,0.00
2013,04,29,05,06,0.00
2013,04,29,05,07,0.00
2013,04,29,05,08,0.00
2013,04,29,05,09,0.00
2013,04,29,05,10,0.00
2013,04,29,05,11,0.00
2013,04,29,05,12,0.00
2013,04,29,05,13,0.00
2013,04,29,05,14,0.00
2013,04,29,05,15,0.00
2013,04,29,05,16,0.00
2013,04,29,05,17,0.00
2013,04,29,05,18,0.00
2013,04,29,05,19,0.00
2013,04,29,05,20,0.00
2013,04,29,05,21,0.00
2013,04,29,05,22,0.00
2013,04,29,05,23,0.00
2013,04,29,05,24,0.00
2013,04,29,05,25,0.00
2013,04,29,05,26,0.00
2013,04,29,05,27,0.00
2013,04,29,05,28,0.00
2013,04,29,05,29,0.00
2013,04,29,05,30,0.00
2013,04,29,05,31,0.00
2013,04,29,05,32,0.00
2013,04,29,05,33,0.00
2013,04,29,05,34,0.00
2013,04,29,05,35,0.00
2013,04,29,05,36,0.00
2013,04,29,05,37,0.00
2013,04,29,05,38,0.00
2013,04,29,05,39,0.00
2013,04,29,05,40,0.00
2013,04,29,05,41,0.00
2013,04,29,05,42,0.00
2013,04,29,05,43,0.00
2013,04,29,05,44,0.00
2013,04,29,05,45,0.00
2013,04,29,05,46,0.00
2013,04,29,05,47,0.00
2013,04,29,05,48,0.00
2013,04,29,05,49,0.00
2013,04,29,05,50,0.00
2013,04,29,05,51,0.00
2013,04,29,05,52,0.00
2013,04,29,05,53,0.00
2013,04,29,05,54,0.00
2013,04,29,05,55,0.00
2013,04,29,05,56,0.00
2013,04,29,05,57,0.00
2013,04,29,05,58,0.00
2013,04,29,05,59,0.00
2013,04,29,06,00,0.00
2013,04,29,06,01,0.00
2013,04,29,06,02,0.00
2013,04,29,06,03,0.00
2013,04,29,06,04,0.00
2013,04,29,06,05,0.00
2013,04,29,06,06,0.00
2013,04,29,06,07,0.00
2013,04,29,06,08,0.00
2013,04,29,06,09,0.00
2013,04,29,06,10,0.00
2013,04,29,06,11,0.00
2013,04,29,06,12,0.00
2013,04,29,06,13,0.00
2013,04,29,06,14,0.00
2013,04,29,06,15,5.00
2013,04,29,06,16,5.00
2013,04,29,06,17,5.00
2013,04,29,06,18,5.00
2013,04,29,06,19,5.00
2013,04,29,06,20,5.00
2013,04,29,06,21,5.00
2013,04,29,06,22,5.00
2013,04,29,06,23,6.80
2013,04,29,06,24,7.00
2013,04,29,06,25,7.00
2013,04,29,06,26,7.00
2013,04,29,06,27,7.90
2013,04,29,06,28,9.00
2013,04,29,06,29,9.00
2013,04,29,06,30,9.00
2013,04,29,06,31,9.00
2013,04,29,06,32,9.20
2013,04,29,06,33,11.00
2013,04,29,06,34,11.00
2013,04,29,06,35,11.00
2013,04,29,06,36,11.00
2013,04,29,06,37,11.00
2013,04,29,06,38,11.00
2013,04,29,06,39,11.80
2013,04,29,06,40,13.80
2013,04,29,06,41,16.00
2013,04,29,06,42,16.00
2013,04,29,06,43,16.00
2013,04,29,06,44,15.20
2013,04,29,06,45,14.00
2013,04,29,06,46,14.00
2013,04,29,06,47,14.00
2013,04,29,06,48,14.00
2013,04,29,06,49,14.10
2013,04,29,06,50,16.00
2013,04,29,06,51,16.00
2013,04,29,06,52,15.30
2013,04,29,06,53,14.00
2013,04,29,06,54,14.00
2013,04,29,06,55,14.00
2013,04,29,06,56,14.00
2013,04,29,06,57,14.00
2013,04,29,06,58,16.00
2013,04,29,06,59,16.00
2013,04,29,07,00,16.60
2013,04,29,07,01,18.00
2013,04,29,07,02,18.50
2013,04,29,07,03,20.10
2013,04,29,07,04,23.80
2013,04,29,07,05,25.80
2013,04,29,07,06,29.90
2013,04,29,07,07,32.40
2013,04,29,07,08,36.00
2013,04,29,07,09,40.80
2013,04,29,07,10,45.40
2013,04,29,07,11,49.20
2013,04,29,07,12,52.90
2013,04,29,07,13,55.50
2013,04,29,07,14,54.30
2013,04,29,07,15,54.00
2013,04,29,07,16,54.00
2013,04,29,07,17,55.10
2013,04,29,07,18,59.40
2013,04,29,07,19,63.40
2013,04,29,07,20,67.40
2013,04,29,07,21,69.00
2013,04,29,07,22,69.00
2013,04,29,07,23,67.20
2013,04,29,07,24,64.80
2013,04,29,07,25,62.80
2013,04,29,07,26,61.40
2013,04,29,07,27,58.30
2013,04,29,07,28,54.50
2013,04,29,07,29,50.50
2013,04,29,07,30,46.90
2013,04,29,07,31,46.00
2013,04,29,07,32,51.90
2013,04,29,07,33,74.10
2013,04,29,07,34,68.80
2013,04,29,07,35,70.60
2013,04,29,07,36,75.50
2013,04,29,07,37,92.70
2013,04,29,07,38,107.70
2013,04,29,07,39,129.90
2013,04,29,07,40,138.30
2013,04,29,07,41,145.30
2013,04,29,07,42,159.60
2013,04,29,07,43,171.90
2013,04,29,07,44,188.70
2013,04,29,07,45,192.30
2013,04,29,07,46,190.70
2013,04,29,07,47,173.80
2013,04,29,07,48,123.60
2013,04,29,07,49,106.60
2013,04,29,07,50,118.70
2013,04,29,07,51,108.80
2013,04,29,07,52,120.60
2013,04,29,07,53,122.00
2013,04,29,07,54,132.00
2013,04,29,07,55,120.50
2013,04,29,07,56,104.70
2013,04,29,07,57,106.30
2013,04,29,07,58,92.20
2013,04,29,07,59,102.60
2013,04,29,08,00,87.10
2013,04,29,08,01,85.40
2013,04,29,08,02,73.00
2013,04,29,08,03,108.20
2013,04,29,08,04,113.90
2013,04,29,08,05,154.30
2013,04,29,08,06,175.00
2013,04,29,08,07,181.40
2013,04,29,08,08,185.70
2013,04,29,08,09,190.90
2013,04,29,08,10,201.10
2013,04,29,08,11,212.70
2013,04,29,08,12,202.10
2013,04,29,08,13,244.00
2013,04,29,08,14,270.50
2013,04,29,08,15,269.30
2013,04,29,08,16,272.90
2013,04,29,08,17,280.50
2013,04,29,08,18,275.00
2013,04,29,08,19,261.00
2013,04,29,08,20,276.80
2013,04,29,08,21,274.10
2013,04,29,08,22,265.10
2013,04,29,08,23,264.00
2013,04,29,08,24,253.90
2013,04,29,08,25,238.10
2013,04,29,08,26,216.00
2013,04,29,08,27,208.20
2013,04,29,08,28,189.70
2013,04,29,08,29,211.00
2013,04,29,08,30,182.10
2013,04,29,08,31,168.20
2013,04,29,08,32,157.30
2013,04,29,08,33,176.10
2013,04,29,08,34,168.50
2013,04,29,08,35,204.00
2013,04,29,08,36,293.60
2013,04,29,08,37,413.00
2013,04,29,08,38,308.00
2013,04,29,08,39,233.30
2013,04,29,08,40,229.00
2013,04,29,08,41,270.70
2013,04,29,08,42,228.50
2013,04,29,08,43,178.30
2013,04,29,08,44,173.70
2013,04,29,08,45,178.00
2013,04,29,08,46,174.50
2013,04,29,08,47,176.90
2013,04,29,08,48,179.00
2013,04,29,08,49,420.60
2013,04,29,08,50,424.50
2013,04,29,08,51,267.30
2013,04,29,08,52,197.00
2013,04,29,08,53,250.20
2013,04,29,08,54,327.00
2013,04,29,08,55,327.00
2013,04,29,08,56,327.00
2013,04,29,08,57,327.00
2013,04,29,08,58,298.40
2013,04,29,08,59,332.50
2013,04,29,09,00,501.00
2013,04,29,09,01,428.60
2013,04,29,09,02,286.90
2013,04,29,09,03,258.00
2013,04,29,09,04,258.00
2013,04,29,09,05,227.10
2013,04,29,09,06,246.70
2013,04,29,09,07,239.90
2013,04,29,09,08,250.20
2013,04,29,09,09,278.30
2013,04,29,09,10,298.30
2013,04,29,09,11,291.00
2013,04,29,09,12,269.90
2013,04,29,09,13,236.00
2013,04,29,09,14,236.00
2013,04,29,09,15,225.70
2013,04,29,09,16,217.80
2013,04,29,09,17,201.50
2013,04,29,09,18,187.80
2013,04,29,09,19,186.60
2013,04,29,09,20,197.00
2013,04,29,09,21,405.60
2013,04,29,09,22,526.30
2013,04,29,09,23,522.30
2013,04,29,09,24,527.80
2013,04,29,09,25,537.60
2013,04,29,09,26,551.30
2013,04,29,09,27,572.40
2013,04,29,09,28,533.10
2013,04,29,09,29,493.20
2013,04,29,09,30,501.00
2013,04,29,09,31,501.00
2013,04,29,09,32,530.70
2013,04,29,09,33,572.10
2013,04,29,09,34,567.60
2013,04,29,09,35,575.20
2013,04,29,09,36,583.70
2013,04,29,09,37,598.30
2013,04,29,09,38,616.20
2013,04,29,09,39,609.40
2013,04,29,09,40,623.10
2013,04,29,09,41,614.20
2013,04,29,09,42,374.50
2013,04,29,09,43,406.30
2013,04,29,09,44,383.00
2013,04,29,09,45,383.00
2013,04,29,09,46,383.00
2013,04,29,09,47,504.40
2013,04,29,09,48,561.00
2013,04,29,09,49,561.00
2013,04,29,09,50,561.00
2013,04,29,09,51,494.90
2013,04,29,09,52,263.00
2013,04,29,09,53,282.50
2013,04,29,09,54,304.00
2013,04,29,09,55,337.90
2013,04,29,09,56,352.00
2013,04,29,09,57,352.00
2013,04,29,09,58,359.70
2013,04,29,09,59,522.00
2013,04,29,10,00,445.00
2013,04,29,10,01,221.90
2013,04,29,10,02,205.70
2013,04,29,10,03,194.70
2013,04,29,10,04,192.30
2013,04,29,10,05,183.50
2013,04,29,10,06,178.40
2013,04,29,10,07,172.00
2013,04,29,10,08,167.90
2013,04,29,10,09,162.20
2013,04,29,10,10,160.00
2013,04,29,10,11,160.00
2013,04,29,10,12,165.30
2013,04,29,10,13,185.00
2013,04,29,10,14,217.40
2013,04,29,10,15,253.90
2013,04,29,10,16,289.80
2013,04,29,10,17,310.20
2013,04,29,10,18,347.90
2013,04,29,10,19,400.30
2013,04,29,10,20,489.00
2013,04,29,10,21,518.20
2013,04,29,10,22,512.00
2013,04,29,10,23,512.00
2013,04,29,10,24,499.50
2013,04,29,10,25,237.70
2013,04,29,10,26,245.40
2013,04,29,10,27,264.60
2013,04,29,10,28,278.00
2013,04,29,10,29,278.00
2013,04,29,10,30,595.70
2013,04,29,10,31,744.00
2013,04,29,10,32,744.00
2013,04,29,10,33,219.60
2013,04,29,10,34,216.40
2013,04,29,10,35,218.00
2013,04,29,10,36,456.10
2013,04,29,10,37,808.00
2013,04,29,10,38,828.80
2013,04,29,10,39,831.90
2013,04,29,10,40,825.10
2013,04,29,10,41,742.70
2013,04,29,10,42,735.00
2013,04,29,10,43,735.00
2013,04,29,10,44,804.60
2013,04,29,10,45,944.00
2013,04,29,10,46,952.20
2013,04,29,10,47,892.90
2013,04,29,10,48,897.00
2013,04,29,10,49,907.00
2013,04,29,10,50,259.30
2013,04,29,10,51,273.30
2013,04,29,10,52,274.90
2013,04,29,10,53,264.40
2013,04,29,10,54,265.00
2013,04,29,10,55,267.40
2013,04,29,10,56,277.30
2013,04,29,10,57,298.20
2013,04,29,10,58,332.90
2013,04,29,10,59,357.60
2013,04,29,11,00,371.30
2013,04,29,11,01,353.70
2013,04,29,11,02,336.00
2013,04,29,11,03,336.00
2013,04,29,11,04,320.10
2013,04,29,11,05,319.90
2013,04,29,11,06,294.50
2013,04,29,11,07,256.40
2013,04,29,11,08,252.90
2013,04,29,11,09,264.60
2013,04,29,11,10,280.50
2013,04,29,11,11,297.00
2013,04,29,11,12,297.00
2013,04,29,11,13,329.70
2013,04,29,11,14,345.00
2013,04,29,11,15,436.30
2013,04,29,11,16,434.00
2013,04,29,11,17,434.00
2013,04,29,11,18,434.00
2013,04,29,11,19,367.70
2013,04,29,11,20,272.00
2013,04,29,11,21,285.40
2013,04,29,11,22,331.10
2013,04,29,11,23,395.10
2013,04,29,11,24,403.00
2013,04,29,11,25,403.00
2013,04,29,11,26,411.00
2013,04,29,11,27,425.10
2013,04,29,11,28,401.00
2013,04,29,11,29,421.70
2013,04,29,11,30,439.00
2013,04,29,11,31,439.00
2013,04,29,11,32,876.90
2013,04,29,11,33,946.00
2013,04,29,11,34,946.00
2013,04,29,11,35,946.00
2013,04,29,11,36,710.00
2013,04,29,11,37,366.50
2013,04,29,11,38,354.70
2013,04,29,11,39,316.70
2013,04,29,11,40,306.90
2013,04,29,11,41,309.20
2013,04,29,11,42,320.70
2013,04,29,11,43,325.50
2013,04,29,11,44,329.20
2013,04,29,11,45,336.20
2013,04,29,11,46,341.20
2013,04,29,11,47,339.80
2013,04,29,11,48,338.00
2013,04,29,11,49,346.60
2013,04,29,11,50,332.40
2013,04,29,11,51,325.60
2013,04,29,11,52,338.00
2013,04,29,11,53,338.00
2013,04,29,11,54,338.00
2013,04,29,11,55,338.00
2013,04,29,11,56,338.00
2013,04,29,11,57,871.70
2013,04,29,11,58,1020.00
2013,04,29,11,59,976.20
2013,04,29,12,00,538.00
2013,04,29,12,01,538.00
2013,04,29,12,02,538.00
2013,04,29,12,03,831.50
2013,04,29,12,04,1070.20
2013,04,29,12,05,1104.10
2013,04,29,12,06,1130.00
2013,04,29,12,07,1130.00
2013,04,29,12,08,1130.00
2013,04,29,12,09,1130.00
2013,04,29,12,10,1130.00
2013,04,29,12,11,1130.00
2013,04,29,12,12,690.30
2013,04,29,12,13,339.70
2013,04,29,12,14,327.00
2013,04,29,12,15,318.90
2013,04,29,12,16,315.30
2013,04,29,12,17,319.60
2013,04,29,12,18,336.70
2013,04,29,12,19,362.30
2013,04,29,12,20,340.00
2013,04,29,12,21,306.50
2013,04,29,12,22,312.00
2013,04,29,12,23,346.30
2013,04,29,12,24,399.40
2013,04,29,12,25,495.50
2013,04,29,12,26,484.10
2013,04,29,12,27,500.70
2013,04,29,12,28,453.70
2013,04,29,12,29,434.50
2013,04,29,12,30,394.50
2013,04,29,12,31,352.70
2013,04,29,12,32,325.70
2013,04,29,12,33,322.00
2013,04,29,12,34,350.30
2013,04,29,12,35,305.80
2013,04,29,12,36,285.50
2013,04,29,12,37,267.30
2013,04,29,12,38,254.90
2013,04,29,12,39,239.40
2013,04,29,12,40,234.00
2013,04,29,12,41,255.80
2013,04,29,12,42,258.00
2013,04,29,12,43,258.00
2013,04,29,12,44,258.00
2013,04,29,12,45,561.90
2013,04,29,12,46,959.70
2013,04,29,12,47,954.90
2013,04,29,12,48,966.20
2013,04,29,12,49,998.10
2013,04,29,12,50,1020.50
2013,04,29,12,51,1027.00
2013,04,29,12,52,1042.30
2013,04,29,12,53,1065.60
2013,04,29,12,54,1035.90
2013,04,29,12,55,1037.00
2013,04,29,12,56,1037.00
2013,04,29,12,57,1037.00
2013,04,29,12,58,564.80
2013,04,29,12,59,494.00
2013,04,29,13,00,490.50
2013,04,29,13,01,453.40
2013,04,29,13,02,379.90
2013,04,29,13,03,333.50
2013,04,29,13,04,323.80
2013,04,29,13,05,316.30
2013,04,29,13,06,315.50
2013,04,29,13,07,317.80
2013,04,29,13,08,322.00
2013,04,29,13,09,323.30
2013,04,29,13,10,334.10
2013,04,29,13,11,355.30
2013,04,29,13,12,383.70
2013,04,29,13,13,419.30
2013,04,29,13,14,431.00
2013,04,29,13,15,431.00
2013,04,29,13,16,1005.00
2013,04,29,13,17,1005.00
2013,04,29,13,18,841.30
2013,04,29,13,19,440.40
2013,04,29,13,20,454.00
2013,04,29,13,21,381.90
2013,04,29,13,22,338.10
2013,04,29,13,23,317.50
2013,04,29,13,24,308.30
2013,04,29,13,25,304.00
2013,04,29,13,26,301.70
2013,04,29,13,27,293.40
2013,04,29,13,28,293.10
2013,04,29,13,29,298.70
2013,04,29,13,30,307.70
2013,04,29,13,31,329.20
2013,04,29,13,32,336.00
2013,04,29,13,33,484.60
2013,04,29,13,34,446.00
2013,04,29,13,35,446.00
2013,04,29,13,36,446.00
2013,04,29,13,37,491.00
2013,04,29,13,38,545.00
2013,04,29,13,39,545.00
2013,04,29,13,40,545.00
2013,04,29,13,41,545.00
2013,04,29,13,42,905.00
2013,04,29,13,43,925.20
2013,04,29,13,44,1016.00
2013,04,29,13,45,1010.50
2013,04,29,13,46,1011.50
2013,04,29,13,47,1016.10
2013,04,29,13,48,1007.30
2013,04,29,13,49,978.00
2013,04,29,13,50,949.90
2013,04,29,13,51,467.10
2013,04,29,13,52,487.00
2013,04,29,13,53,487.00
2013,04,29,13,54,487.00
2013,04,29,13,55,487.00
2013,04,29,13,56,801.30
2013,04,29,13,57,974.30
2013,04,29,13,58,992.30
2013,04,29,13,59,1013.90
2013,04,29,14,00,1025.30
2013,04,29,14,01,995.00
2013,04,29,14,02,995.00
2013,04,29,14,03,827.00
2013,04,29,14,04,659.00
2013,04,29,14,05,659.00
2013,04,29,14,06,659.00
2013,04,29,14,07,659.00
2013,04,29,14,08,640.60
2013,04,29,14,09,457.00
2013,04,29,14,10,605.90
2013,04,29,14,11,925.00
2013,04,29,14,12,925.00
2013,04,29,14,13,925.00
2013,04,29,14,14,925.00
2013,04,29,14,15,451.70
2013,04,29,14,16,352.00
2013,04,29,14,17,352.00
2013,04,29,14,18,352.00
2013,04,29,14,19,649.80
2013,04,29,14,20,1166.00
2013,04,29,14,21,1162.70
2013,04,29,14,22,1161.60
2013,04,29,14,23,1160.00
2013,04,29,14,24,1160.00
2013,04,29,14,25,1154.40
2013,04,29,14,26,1097.40
2013,04,29,14,27,1090.00
2013,04,29,14,28,1090.00
2013,04,29,14,29,1100.50
2013,04,29,14,30,1103.70
2013,04,29,14,31,1097.60
2013,04,29,14,32,1097.00
2013,04,29,14,33,1096.90
2013,04,29,14,34,1092.40
2013,04,29,14,35,1074.40
2013,04,29,14,36,1066.80
2013,04,29,14,37,1063.00
2013,04,29,14,38,1063.00
2013,04,29,14,39,1063.00
2013,04,29,14,40,1043.80
2013,04,29,14,41,1059.40
2013,04,29,14,42,1047.20
2013,04,29,14,43,885.20
2013,04,29,14,44,923.10
2013,04,29,14,45,974.00
2013,04,29,14,46,974.00
2013,04,29,14,47,621.80
2013,04,29,14,48,378.00
2013,04,29,14,49,558.00
2013,04,29,14,50,598.00
2013,04,29,14,51,580.00
2013,04,29,14,52,580.00
2013,04,29,14,53,580.00
2013,04,29,14,54,580.00
2013,04,29,14,55,800.40
2013,04,29,14,56,984.00
2013,04,29,14,57,984.00
2013,04,29,14,58,556.10
2013,04,29,14,59,468.30
2013,04,29,15,00,557.00
2013,04,29,15,01,672.60
2013,04,29,15,02,981.00
2013,04,29,15,03,864.30
2013,04,29,15,04,685.60
2013,04,29,15,05,650.00
2013,04,29,15,06,461.50
2013,04,29,15,07,410.30
2013,04,29,15,08,423.20
2013,04,29,15,09,414.30
2013,04,29,15,10,415.30
2013,04,29,15,11,410.70
2013,04,29,15,12,378.00
2013,04,29,15,13,361.70
2013,04,29,15,14,369.90
2013,04,29,15,15,398.50
2013,04,29,15,16,404.00
2013,04,29,15,17,404.00
2013,04,29,15,18,404.00
2013,04,29,15,19,404.00
2013,04,29,15,20,404.00
2013,04,29,15,21,628.70
2013,04,29,15,22,874.00
2013,04,29,15,23,905.00
2013,04,29,15,24,905.00
2013,04,29,15,25,380.90
2013,04,29,15,26,372.80
2013,04,29,15,27,365.10
2013,04,29,15,28,394.40
2013,04,29,15,29,424.50
2013,04,29,15,30,454.10
2013,04,29,15,31,509.30
2013,04,29,15,32,515.00
2013,04,29,15,33,396.80
2013,04,29,15,34,356.40
2013,04,29,15,35,325.90
2013,04,29,15,36,305.90
2013,04,29,15,37,293.00
2013,04,29,15,38,290.00
2013,04,29,15,39,294.50
2013,04,29,15,40,337.70
2013,04,29,15,41,339.00
2013,04,29,15,42,333.50
2013,04,29,15,43,422.00
2013,04,29,15,44,422.00
2013,04,29,15,45,432.90
2013,04,29,15,46,481.50
2013,04,29,15,47,517.00
2013,04,29,15,48,746.10
2013,04,29,15,49,875.40
2013,04,29,15,50,895.90
2013,04,29,15,51,889.40
2013,04,29,15,52,855.70
2013,04,29,15,53,860.70
2013,04,29,15,54,806.00
2013,04,29,15,55,751.00
2013,04,29,15,56,497.10
2013,04,29,15,57,376.00
2013,04,29,15,58,385.00
2013,04,29,15,59,177.10
2013,04,29,16,00,144.00
2013,04,29,16,01,145.10
2013,04,29,16,02,151.30
2013,04,29,16,03,158.70
2013,04,29,16,04,162.50
2013,04,29,16,05,163.00
2013,04,29,16,06,157.60
2013,04,29,16,07,153.40
2013,04,29,16,08,151.10
2013,04,29,16,09,151.70
2013,04,29,16,10,156.40
2013,04,29,16,11,164.70
2013,04,29,16,12,182.50
2013,04,29,16,13,216.00
2013,04,29,16,14,232.00
2013,04,29,16,15,232.00
2013,04,29,16,16,457.50
2013,04,29,16,17,480.00
2013,04,29,16,18,480.00
2013,04,29,16,19,449.10
2013,04,29,16,20,362.60
2013,04,29,16,21,328.40
2013,04,29,16,22,325.20
2013,04,29,16,23,343.70
2013,04,29,16,24,350.00
2013,04,29,16,25,372.60
2013,04,29,16,26,849.40
2013,04,29,16,27,867.80
2013,04,29,16,28,891.10
2013,04,29,16,29,872.70
2013,04,29,16,30,830.40
2013,04,29,16,31,823.00
2013,04,29,16,32,571.10
2013,04,29,16,33,546.60
2013,04,29,16,34,492.00
2013,04,29,16,35,464.50
2013,04,29,16,36,339.50
2013,04,29,16,37,345.40
2013,04,29,16,38,343.00
2013,04,29,16,39,311.20
2013,04,29,16,40,290.80
2013,04,29,16,41,278.00
2013,04,29,16,42,272.40
2013,04,29,16,43,273.30
2013,04,29,16,44,268.10
2013,04,29,16,45,260.80
2013,04,29,16,46,247.50
2013,04,29,16,47,238.80
2013,04,29,16,48,238.30
2013,04,29,16,49,239.00
2013,04,29,16,50,267.50
2013,04,29,16,51,244.20
2013,04,29,16,52,228.60
2013,04,29,16,53,210.20
2013,04,29,16,54,194.50
2013,04,29,16,55,179.00
2013,04,29,16,56,163.70
2013,04,29,16,57,146.90
2013,04,29,16,58,129.70
2013,04,29,16,59,112.50
2013,04,29,17,00,101.30
2013,04,29,17,01,96.50
2013,04,29,17,02,94.40
2013,04,29,17,03,92.20
2013,04,29,17,04,91.00
2013,04,29,17,05,91.00
2013,04,29,17,06,92.50
2013,04,29,17,07,96.30
2013,04,29,17,08,103.90
2013,04,29,17,09,111.80